WX5KDM Weather Reports


time (UTC)temp
C
wind
direction
speed
KPH
gust
KPH
rain 1hr
cm
rain 24hr
cm
rain mn
cm
humidity
%
barometer
mb
20260906122637 25 72 1.6 3.2 0.00 0.00 0.00 91 1014.6
20260906122133 25 50 1.6 4.8 0.00 0.00 0.00 91 1014.5
20260906121629 25 54 0.0 3.2 0.00 0.00 0.00 90 1014.4
20260906121126 25 84 4.8 6.4 0.00 0.00 0.00 90 1014.3
20260906120621 25 59 4.8 4.8 0.00 0.00 0.00 90 1014.2
20260906120119 25 66 1.6 3.2 0.00 0.00 0.00 90 1014.2
20260906115618 25 66 0.0 3.2 0.00 0.00 0.00 90 1014.0
20260906115114 25 94 0.0 1.6 0.00 0.00 0.00 89 1014.1
20260906114607 25 94 3.2 4.8 0.00 0.00 0.00 89 1013.9
20260906114103 25 61 1.6 4.8 0.00 0.00 0.00 89 1013.8
20260906113602 25 77 3.2 4.8 0.00 0.00 0.00 89 1013.7
20260906113057 25 87 1.6 4.8 0.00 0.00 0.00 89 1013.9
20260906112551 25 87 1.6 3.2 0.00 0.00 0.00 89 1013.9
20260906112048 25 62 6.4 12.9 0.00 0.00 0.00 90 1013.9
20260906111548 24 69 3.2 11.3 0.00 0.00 0.00 92 1013.3
20260906111043 24 67 3.2 9.7 0.00 0.00 0.00 92 1013.4
20260906110543 24 261 0.0 0.0 0.00 0.00 0.00 92 1012.9
20260906110042 24 261 0.0 0.0 0.00 0.00 0.00 92 1012.8
20260906105537 23 261 0.0 0.0 0.00 0.00 0.00 93 1012.8
20260906105033 23 261 0.0 0.0 0.00 0.00 0.00 94 1012.8
20260906104532 23 261 0.0 0.0 0.00 0.00 0.00 94 1012.6
20260906104032 23 261 0.0 0.0 0.00 0.00 0.00 94 1012.7
20260906103530 23 261 0.0 0.0 0.00 0.00 0.00 94 1012.8
20260906103026 23 261 0.0 0.0 0.00 0.00 0.00 94 1012.7
20260906102526 23 261 0.0 0.0 0.00 0.00 0.00 94 1012.9
20260906102021 23 261 0.0 0.0 0.00 0.00 0.00 94 1012.6
20260906101515 24 261 0.0 0.0 0.00 0.00 0.00 94 1012.8
20260906101010 23 261 0.0 0.0 0.00 0.00 0.00 94 1012.7
20260906100500 23 261 0.0 0.0 0.00 0.00 0.00 94 1012.6
20260906100000 23 261 0.0 0.0 0.00 0.00 0.00 94 1012.5
20260906095455 23 261 0.0 0.0 0.00 0.00 0.00 94 1012.3
20260906094950 23 260 0.0 0.0 0.00 0.00 0.00 94 1012.4
20260906094449 24 261 0.0 0.0 0.00 0.00 0.00 94 1012.5
20260906093945 24 260 0.0 0.0 0.00 0.00 0.00 94 1012.7
20260906093441 24 260 0.0 0.0 0.00 0.00 0.00 93 1012.6
20260906092941 24 261 0.0 0.0 0.00 0.00 0.00 93 1012.6
20260906092436 24 261 0.0 0.0 0.00 0.00 0.00 93 1012.5
20260906091931 24 261 0.0 0.0 0.00 0.00 0.00 93 1012.4
20260906091427 24 261 0.0 0.0 0.00 0.00 0.00 92 1012.5
20260906090923 24 260 0.0 0.0 0.00 0.00 0.00 92 1012.4
20260906090418 24 261 0.0 0.0 0.00 0.00 0.00 92 1012.4
20260906085913 25 261 0.0 0.0 0.00 0.00 0.00 92 1012.4
20260906085412 25 261 0.0 0.0 0.00 0.00 0.00 92 1012.3
20260906084911 25 261 0.0 0.0 0.00 0.00 0.00 92 1012.4
20260906084406 25 260 0.0 0.0 0.00 0.00 0.00 92 1012.3
20260906083905 25 261 0.0 0.0 0.00 0.00 0.00 92 1012.3
20260906083401 25 261 0.0 0.0 0.00 0.00 0.00 91 1012.4
20260906082901 25 260 0.0 0.0 0.00 0.00 0.00 91 1012.4
20260906082401 25 260 0.0 0.0 0.00 0.00 0.00 91 1012.4
20260906081857 25 261 0.0 0.0 0.00 0.00 0.00 90 1012.3
20260906081352 25 261 0.0 0.0 0.00 0.00 0.00 90 1012.5
20260906080848 25 261 0.0 0.0 0.00 0.00 0.00 90 1012.6
20260906080345 25 261 0.0 0.0 0.00 0.00 0.00 90 1012.5
20260906075843 25 261 0.0 0.0 0.00 0.00 0.00 90 1012.8
20260906075338 25 261 0.0 0.0 0.00 0.00 0.00 89 1012.7
20260906074834 25 261 0.0 0.0 0.00 0.00 0.00 89 1012.8
20260906074334 25 261 0.0 0.0 0.00 0.00 0.00 89 1012.7
20260906073832 25 261 0.0 0.0 0.00 0.00 0.00 89 1012.5
20260906073327 25 261 0.0 1.6 0.00 0.00 0.00 88 1012.5
20260906072824 25 261 0.0 0.0 0.00 0.00 0.00 90 1012.6
20260906072319 25 260 0.0 0.0 0.00 0.00 0.00 90 1012.6
20260906071815 25 261 0.0 0.0 0.00 0.00 0.00 90 1012.4
20260906071310 25 261 0.0 0.0 0.00 0.00 0.00 89 1012.4
20260906070806 25 261 0.0 0.0 0.00 0.00 0.00 89 1012.4
20260906070302 25 260 0.0 0.0 0.00 0.00 0.00 89 1012.5
20260906065756 25 260 0.0 0.0 0.00 0.00 0.00 88 1012.5
20260906065252 26 260 0.0 0.0 0.00 0.00 0.00 87 1012.4
20260906064747 26 260 0.0 0.0 0.00 0.00 0.00 86 1012.5
20260906064243 26 260 0.0 0.0 0.00 0.00 0.00 86 1012.5
20260906063738 26 260 0.0 0.0 0.00 0.00 0.00 85 1012.5
20260906063233 26 260 1.6 3.2 0.00 0.00 0.00 85 1012.4
20260906062728 26 261 0.0 0.0 0.00 0.00 0.00 85 1012.5
20260906062227 26 260 3.2 4.8 0.00 0.00 0.00 85 1012.5
20260906061723 26 234 3.2 3.2 0.00 0.00 0.00 85 1012.6
20260906061220 26 234 3.2 4.8 0.00 0.00 0.00 85 1012.7
20260906060715 26 234 1.6 1.6 0.00 0.00 0.00 89 1012.6
20260906060212 26 234 0.0 0.0 0.00 0.00 0.00 89 1012.5
20260906055708 26 234 0.0 0.0 0.00 0.00 0.00 89 1012.6
20260906055203 26 234 0.0 0.0 0.00 0.00 0.00 89 1012.8
20260906054658 26 234 0.0 0.0 0.00 0.00 0.00 88 1012.6
20260906054157 26 234 0.0 0.0 0.00 0.00 0.00 87 1012.9
20260906053654 26 234 0.0 0.0 0.00 0.00 0.00 87 1012.7
20260906053149 26 234 0.0 0.0 0.00 0.00 0.00 87 1012.8
20260906052645 26 234 0.0 0.0 0.00 0.00 0.00 86 1012.9
20260906052141 26 234 0.0 0.0 0.00 0.00 0.00 86 1013.0
20260906051638 26 234 0.0 0.0 0.00 0.00 0.00 85 1012.7
20260906051137 26 234 0.0 0.0 0.00 0.00 0.00 86 1012.9
20260906050633 26 234 0.0 0.0 0.00 0.00 0.00 87 1012.9
20260906050128 26 234 0.0 0.0 0.00 0.00 0.00 87 1012.7
20260906045626 26 234 0.0 0.0 0.00 0.00 0.00 87 1012.8
20260906045121 27 234 0.0 0.0 0.00 0.00 0.00 86 1012.5
20260906044617 27 234 0.0 0.0 0.00 0.00 0.00 84 1012.7
20260906044112 27 234 0.0 0.0 0.00 0.00 0.00 83 1012.8
20260906043609 27 234 0.0 0.0 0.00 0.00 0.00 82 1012.8
20260906043104 27 234 0.0 0.0 0.00 0.00 0.00 84 1012.8
20260906042603 27 234 0.0 0.0 0.00 0.00 0.00 85 1013.0
20260906042058 27 234 0.0 0.0 0.00 0.00 0.00 84 1012.9
20260906041554 28 234 0.0 0.0 0.00 0.00 0.00 83 1013.1
20260906041048 28 234 1.6 1.6 0.00 0.00 0.00 81 1013.0
20260906040543 27 234 0.0 1.6 0.00 0.00 0.00 82 1013.0
20260906040034 27 234 3.2 3.2 0.00 0.00 0.00 83 1012.8
20260906035529 27 234 0.0 3.2 0.00 0.00 0.00 84 1012.8
20260906035025 27 236 3.2 6.4 0.00 0.00 0.00 86 1012.6
20260906034524 27 36 0.0 0.0 0.00 0.00 0.00 84 1012.5
20260906034019 27 36 0.0 0.0 0.00 0.00 0.00 83 1012.6
20260906033514 27 36 0.0 0.0 0.00 0.00 0.00 82 1012.7
20260906033010 27 36 0.0 0.0 0.00 0.00 0.00 82 1012.5
20260906032507 27 36 0.0 0.0 0.00 0.00 0.00 80 1012.6
20260906032001 27 36 0.0 0.0 0.00 0.00 0.00 83 1012.7
20260906031456 27 36 0.0 0.0 0.00 0.00 0.00 83 1012.6
20260906030951 27 36 0.0 0.0 0.00 0.00 0.00 83 1012.5
20260906030445 27 36 0.0 0.0 0.00 0.00 0.00 83 1012.6
20260906025940 27 36 0.0 0.0 0.00 0.00 0.00 82 1012.4
20260906025439 27 36 0.0 0.0 0.00 0.00 0.00 81 1012.5
20260906024938 27 36 0.0 0.0 0.00 0.00 0.00 81 1012.5
20260906024438 27 36 0.0 0.0 0.00 0.00 0.00 80 1012.5
20260906023933 27 36 0.0 0.0 0.00 0.00 0.00 80 1012.5
20260906023430 27 36 0.0 0.0 0.00 0.00 0.00 80 1012.3
20260906022930 28 36 0.0 0.0 0.00 0.00 0.00 81 1012.2
20260906022425 28 36 0.0 0.0 0.00 0.00 0.00 81 1012.4
20260906021920 28 36 0.0 0.0 0.00 0.00 0.00 79 1012.2
20260906021421 28 36 0.0 0.0 0.00 0.00 0.00 80 1012.0
20260906020920 28 36 0.0 0.0 0.00 0.00 0.00 80 1012.0
20260906020415 28 36 0.0 0.0 0.00 0.00 0.00 81 1012.2
20260906015909 28 36 0.0 0.0 0.00 0.00 0.00 80 1012.0
20260906015409 28 36 0.0 0.0 0.00 0.00 0.00 80 1011.9
20260906014903 28 36 0.0 0.0 0.00 0.00 0.00 79 1011.8
20260906014402 28 36 0.0 0.0 0.00 0.00 0.00 78 1011.8
20260906013859 28 36 0.0 0.0 0.00 0.00 0.00 77 1011.7
20260906013354 28 36 0.0 0.0 0.00 0.00 0.00 77 1011.7
20260906012849 28 36 0.0 0.0 0.00 0.00 0.00 77 1011.7
20260906012344 28 36 0.0 0.0 0.00 0.00 0.00 76 1011.7
20260906011844 28 36 0.0 0.0 0.00 0.00 0.00 77 1011.6
20260906011339 29 36 0.0 0.0 0.00 0.00 0.00 76 1011.6
20260906010835 29 36 0.0 0.0 0.00 0.00 0.00 73 1011.5
20260906010331 30 36 0.0 0.0 0.00 0.00 0.00 72 1011.4
20260906005826 30 36 0.0 0.0 0.00 0.00 0.00 70 1011.4
20260906005325 30 36 0.0 0.0 0.00 0.00 0.00 68 1011.3
20260906004824 30 36 0.0 0.0 0.00 0.00 0.00 67 1011.3
20260906004324 30 36 0.0 0.0 0.00 0.00 0.00 66 1011.1
20260906003819 31 36 0.0 0.0 0.00 0.00 0.00 64 1011.2
20260906003315 31 36 0.0 0.0 0.00 0.00 0.00 63 1011.2
20260906002810 31 36 0.0 0.0 0.00 0.00 0.00 63 1011.3
20260906002309 31 36 0.0 0.0 0.00 0.00 0.00 63 1011.3
20260906001805 32 36 0.0 0.0 0.00 0.00 0.00 63 1011.1
20260906001300 32 36 0.0 0.0 0.00 0.00 0.00 61 1011.3
20260906000755 33 36 0.0 0.0 0.00 0.00 0.00 59 1011.5
20260906000249 33 36 0.0 0.0 0.00 0.00 0.00 58 1011.1
20260905235745 34 37 0.0 0.0 0.00 0.00 0.00 56 1011.3
20260905235244 35 36 0.0 0.0 0.00 0.00 0.00 55 1011.3
20260905234740 35 37 0.0 0.0 0.00 0.00 0.00 54 1011.2
20260905234235 36 37 0.0 0.0 0.00 0.00 0.00 50 1011.4
20260905233730 36 37 0.0 0.0 0.00 0.00 0.00 48 1011.4
20260905233229 37 37 0.0 0.0 0.00 0.00 0.00 47 1011.4
20260905232724 37 37 0.0 0.0 0.00 0.00 0.00 46 1011.3
20260905232220 37 37 0.0 0.0 0.00 0.00 0.00 47 1011.2
20260905231716 37 37 0.0 0.0 0.00 0.00 0.00 45 1011.1
20260905231211 37 37 0.0 0.0 0.00 0.00 0.00 45 1011.1
20260905230702 37 37 0.0 0.0 0.00 0.00 0.00 47 1011.2
20260905230159 37 37 0.0 0.0 0.00 0.00 0.00 46 1011.1
20260905225659 37 37 0.0 3.2 0.00 0.00 0.00 45 1011.1
20260905225154 37 36 1.6 3.2 0.00 0.00 0.00 45 1011.1
20260905224648 37 64 0.0 0.0 0.00 0.00 0.00 43 1011.0
20260905224148 37 64 1.6 3.2 0.00 0.00 0.00 44 1011.1
20260905223644 38 108 0.0 0.0 0.00 0.00 0.00 43 1011.1
20260905223141 37 112 0.0 0.0 0.00 0.00 0.00 43 1011.4
20260905222636 37 112 0.0 1.6 0.00 0.00 0.00 43 1011.2
20260905222131 37 154 1.6 3.2 0.00 0.00 0.00 45 1011.3
20260905221627 37 125 0.0 0.0 0.00 0.00 0.00 44 1011.3
20260905221124 38 184 0.0 1.6 0.00 0.00 0.00 44 1011.2
20260905220619 37 185 0.0 0.0 0.00 0.00 0.00 45 1011.5
20260905220115 36 122 1.6 3.2 0.00 0.00 0.00 44 1011.2
20260905215614 36 109 4.8 6.4 0.00 0.00 0.00 45 1011.4
20260905215110 36 85 3.2 6.4 0.00 0.00 0.00 44 1011.5
20260905214606 37 109 4.8 9.7 0.00 0.00 0.00 44 1011.4
20260905214100 37 120 3.2 6.4 0.00 0.00 0.00 45 1011.4
20260905213556 38 126 3.2 6.4 0.00 0.00 0.00 44 1011.5
20260905213051 38 191 4.8 4.8 0.00 0.00 0.00 43 1011.5
20260905212551 37 190 0.0 4.8 0.00 0.00 0.00 43 1011.5
20260905212045 37 213 1.6 3.2 0.00 0.00 0.00 45 1011.7
20260905211540 37 67 4.8 6.4 0.00 0.00 0.00 44 1011.4
20260905211036 37 145 3.2 11.3 0.00 0.00 0.00 43 1011.4
20260905210531 38 114 6.4 9.7 0.00 0.00 0.00 44 1011.6
20260905210026 38 42 1.6 4.8 0.00 0.00 0.00 43 1011.7
20260905205526 38 58 0.0 3.2 0.00 0.00 0.00 42 1011.7
20260905205025 38 77 1.6 11.3 0.00 0.00 0.00 41 1011.9
20260905204520 38 222 0.0 3.2 0.00 0.00 0.00 43 1011.9
20260905204015 37 131 3.2 6.4 0.00 0.00 0.00 47 1012.0
20260905203510 37 29 3.2 6.4 0.00 0.00 0.00 44 1012.0
20260905203005 37 107 0.0 3.2 0.00 0.00 0.00 45 1012.2
20260905202500 37 103 6.4 11.3 0.00 0.00 0.00 44 1012.1
20260905201956 37 73 8.0 12.9 0.00 0.00 0.00 44 1012.3
20260905201451 37 120 3.2 3.2 0.00 0.00 0.00 45 1012.5
20260905200950 37 110 3.2 6.4 0.00 0.00 0.00 46 1012.2
20260905200447 37 117 6.4 9.7 0.00 0.00 0.00 44 1012.4
20260905195945 37 74 3.2 6.4 0.00 0.00 0.00 45 1012.4
20260905195440 37 105 3.2 4.8 0.00 0.00 0.00 46 1012.4
20260905194936 37 70 3.2 4.8 0.00 0.00 0.00 47 1012.6
20260905194435 37 70 1.6 3.2 0.00 0.00 0.00 47 1012.7
20260905193935 37 80 9.7 11.3 0.00 0.00 0.00 46 1012.7
20260905193429 37 48 4.8 6.4 0.00 0.00 0.00 45 1012.8
20260905192924 38 35 0.0 0.0 0.00 0.00 0.00 45 1013.1
20260905192425 37 35 3.2 6.4 0.00 0.00 0.00 45 1013.0
20260905191920 37 53 1.6 9.7 0.00 0.00 0.00 46 1012.9
20260905191419 36 359 3.2 6.4 0.00 0.00 0.00 47 1013.1
20260905190914 37 65 3.2 11.3 0.00 0.00 0.00 48 1013.2
20260905190411 37 104 6.4 9.7 0.00 0.00 0.00 47 1013.4
20260905185910 37 104 3.2 11.3 0.00 0.00 0.00 46 1013.4
20260905185406 37 88 4.8 6.4 0.00 0.00 0.00 48 1013.4
20260905184904 37 79 6.4 9.7 0.00 0.00 0.00 47 1013.5
20260905184359 37 152 6.4 6.4 0.00 0.00 0.00 48 1013.5
20260905183857 36 152 1.6 4.8 0.00 0.00 0.00 50 1013.4
20260905183353 36 137 4.8 12.9 0.00 0.00 0.00 49 1013.7
20260905182848 36 120 3.2 6.4 0.00 0.00 0.00 50 1013.8
20260905182347 36 101 6.4 9.7 0.00 0.00 0.00 49 1013.7
20260905181843 37 94 4.8 6.4 0.00 0.00 0.00 48 1013.8
20260905181343 36 116 6.4 9.7 0.00 0.00 0.00 50 1013.8
20260905180841 36 128 6.4 6.4 0.00 0.00 0.00 49 1014.0
20260905180337 36 103 4.8 9.7 0.00 0.00 0.00 51 1014.0
20260905175831 36 126 6.4 9.7 0.00 0.00 0.00 49 1013.9
20260905175325 36 73 3.2 9.7 0.00 0.00 0.00 51 1014.0
20260905174821 37 56 4.8 11.3 0.00 0.00 0.00 50 1014.2
20260905174317 36 109 1.6 3.2 0.00 0.00 0.00 49 1014.2
20260905173812 36 93 8.0 14.5 0.00 0.00 0.00 50 1014.2
20260905173308 36 93 0.0 4.8 0.00 0.00 0.00 49 1014.5
20260905172808 36 75 9.7 12.9 0.00 0.00 0.00 49 1014.2
20260905172306 36 66 3.2 4.8 0.00 0.00 0.00 49 1014.5
20260905171803 36 113 3.2 16.1 0.00 0.00 0.00 52 1014.4
20260905171259 36 48 3.2 6.4 0.00 0.00 0.00 52 1014.5
20260905170755 36 88 6.4 9.7 0.00 0.00 0.00 50 1014.4
20260905170251 36 105 3.2 4.8 0.00 0.00 0.00 52 1014.4
20260905165749 35 9 0.0 6.4 0.00 0.00 0.00 53 1014.5
20260905165246 36 59 1.6 6.4 0.00 0.00 0.00 52 1014.5
20260905164745 36 47 3.2 4.8 0.00 0.00 0.00 51 1014.7
20260905164240 36 87 0.0 1.6 0.00 0.00 0.00 52 1014.6
20260905163736 35 87 0.0 3.2 0.00 0.00 0.00 54 1014.8
20260905163232 35 99 9.7 11.3 0.00 0.00 0.00 52 1014.7
20260905162728 35 108 9.7 12.9 0.00 0.00 0.00 54 1015.0
20260905162227 35 96 6.4 9.7 0.00 0.00 0.00 53 1015.0
20260905161722 35 90 4.8 6.4 0.00 0.00 0.00 56 1015.0
20260905161221 34 76 4.8 9.7 0.00 0.00 0.00 56 1015.1
20260905160720 34 76 3.2 9.7 0.00 0.00 0.00 58 1015.1
20260905160220 35 80 6.4 9.7 0.00 0.00 0.00 56 1015.4
20260905155714 35 76 1.6 4.8 0.00 0.00 0.00 58 1015.1
20260905155213 34 77 3.2 9.7 0.00 0.00 0.00 62 1015.1
20260905154707 33 63 3.2 6.4 0.00 0.00 0.00 60 1015.2
20260905154203 34 95 6.4 9.7 0.00 0.00 0.00 62 1015.3
20260905153654 33 62 1.6 4.8 0.00 0.00 0.00 64 1015.4
20260905153149 33 66 3.2 9.7 0.00 0.00 0.00 63 1015.3
20260905152643 32 58 4.8 6.4 0.00 0.00 0.00 65 1015.1
20260905152138 32 68 4.8 6.4 0.00 0.00 0.00 65 1015.3
20260905151632 32 78 4.8 9.7 0.00 0.00 0.00 67 1015.3
20260905151128 32 68 8.0 9.7 0.00 0.00 0.00 65 1015.3
20260905150623 32 71 4.8 6.4 0.00 0.00 0.00 67 1015.3
20260905150121 32 75 0.0 6.4 0.00 0.00 0.00 67 1015.3
20260905145620 32 76 0.0 3.2 0.00 0.00 0.00 66 1015.2
20260905145119 32 76 1.6 3.2 0.00 0.00 0.00 67 1015.2
20260905144615 31 76 1.6 6.4 0.00 0.00 0.00 71 1015.3
20260905144113 32 89 1.6 3.2 0.00 0.00 0.00 71 1015.3
20260905143609 31 89 3.2 4.8 0.00 0.00 0.00 72 1015.3
20260905143103 31 91 1.6 4.8 0.00 0.00 0.00 72 1015.2
20260905142602 30 93 1.6 4.8 0.00 0.00 0.00 74 1015.2
20260905142101 30 93 1.6 4.8 0.00 0.00 0.00 76 1015.4
20260905141601 30 92 3.2 4.8 0.00 0.00 0.00 77 1015.4
20260905141058 30 97 4.8 6.4 0.00 0.00 0.00 76 1015.5
20260905140553 30 96 3.2 3.2 0.00 0.00 0.00 76 1015.4
20260905140052 30 96 3.2 4.8 0.00 0.00 0.00 77 1015.2
20260905135547 30 98 1.6 3.2 0.00 0.00 0.00 77 1015.4
20260905135047 29 98 3.2 3.2 0.00 0.00 0.00 78 1015.4
20260905134543 28 98 1.6 4.8 0.00 0.00 0.00 78 1015.4
20260905134041 28 98 3.2 4.8 0.00 0.00 0.00 80 1015.4
20260905133537 28 98 1.6 3.2 0.00 0.00 0.00 82 1015.3
20260905133036 28 98 1.6 4.8 0.00 0.00 0.00 82 1015.4
20260905132536 27 98 3.2 6.4 0.00 0.00 0.00 84 1015.4
20260905132031 28 98 4.8 4.8 0.00 0.00 0.00 82 1015.3
20260905131526 27 98 1.6 3.2 0.00 0.00 0.00 83 1015.2
20260905131022 27 98 1.6 3.2 0.00 0.00 0.00 85 1015.4
20260905130521 27 98 1.6 3.2 0.00 0.00 0.00 85 1015.3
20260905130016 27 98 0.0 3.2 0.00 0.00 0.00 85 1015.5
20260905125510 27 98 0.0 1.6 0.00 0.00 0.00 83 1015.4
20260905125006 27 98 0.0 0.0 0.00 0.00 0.00 82 1015.4
20260905124457 26 98 0.0 0.0 0.00 0.00 0.00 86 1015.3
20260905123953 26 98 0.0 0.0 0.00 0.00 0.00 88 1015.5
20260905123448 25 98 0.0 0.0 0.00 0.00 0.00 90 1015.4
20260905122943 25 98 0.0 0.0 0.00 0.00 0.00 91 1015.4